Wind_Speed
13 10 7 3 2 3 5 8 6 7 7 6 7 6 4 10 9 3 3 12 15 18 17 16 15 15 12 12 13 12 9 9 8 7 6 5 4 5 6 7 8 9 10 11 11 13 14 15 16
14 12 9 5 5 7 3 6 6 5 4 5 6 5 4 9 9 14 10 16 17 16 16 15 15 15 14 13 12 11 9 8 8 7 6 5 3 2 3 4 6 7 8 9 10 11 12 13 14
13 13 10 6 9 7 4 2 5 8 5 7 8 5 3 5 4 9 6 20 17 16 17 16 16 14 13 12 11 11 10 9 8 7 5 3 1 0 1 2 3 4 5 7 8 9 9 11 12
13 12 11 8 7 12 10 4 6 9 9 8 6 4 3 7 2 8 14 17 13 13 16 16 15 14 13 12 11 10 9 7 5 4 4 3 2 2 2 2 1 2 3 4 5 6 7 7 9
13 12 12 11 10 12 15 6 8 11 11 10 8 1 2 6 4 12 12 16 10 11 16 19 17 16 14 12 10 9 8 8 7 6 4 3 3 4 4 4 3 3 2 3 3 4 5 5 7
13 14 8 9 12 9 12 11 13 13 11 11 9 4 2 4 4 8 9 15 15 13 17 19 19 18 15 12 11 10 9 8 6 5 4 4 4 5 5 6 6 5 4 3 2 3 3 4 5
14 13 8 15 11 8 9 14 17 14 12 13 11 6 5 7 9 10 9 9 14 16 15 13 14 15 15 12 11 10 8 7 5 5 5 5 5 6 6 7 7 7 6 5 3 2 3 3 4
15 13 12 18 11 9 12 14 17 16 14 13 10 8 6 8 12 15 10 10 12 13 14 14 13 12 12 12 11 9 8 6 4 4 5 6 6 7 8 8 9 10 9 8 7 5 3 2 3
15 12 14 17 11 12 15 13 16 16 16 15 12 8 3 7 9 13 10 10 13 15 16 14 13 13 12 11 10 10 8 6 3 2 4 5 6 7 8 9 10 10 11 10 10 8 6 5 4
15 14 12 14 12 11 15 15 18 17 15 13 10 5 3 4 4 8 2 10 13 14 14 14 12 11 11 12 10 9 8 6 4 3 4 4 7 8 9 10 11 11 12 12 12 12 10 9 7
14 12 12 13 13 12 11 14 19 17 16 10 10 7 7 6 9 2 5 7 11 10 13 12 11 11 11 11 8 6 6 8 4 2 2 5 9 12 11 11 11 12 13 13 14 14 12 12 11
11 12 13 14 12 12 9 11 18 14 11 12 14 11 11 11 11 9 8 5 10 13 11 11 11 12 12 12 7 7 6 6 8 8 4 5 10 14 16 12 13 13 13 13 14 15 14 13 13
8 10 12 13 10 12 12 11 13 11 12 12 10 14 15 15 14 11 10 8 8 14 12 11 14 14 14 14 9 10 8 9 12 12 9 10 12 17 19 13 14 15 15 14 15 15 14 15 15
7 9 11 13 12 8 7 12 13 10 11 10 9 11 15 18 17 14 15 12 10 10 16 17 9 14 15 16 16 15 16 15 16 16 15 13 17 20 21 16 14 16 16 16 14 17 16 17 15
12 13 13 13 13 9 8 12 12 9 11 12 13 14 16 18 22 19 18 19 11 12 11 13 15 16 20 22 19 20 23 21 19 19 19 19 21 23 22 18 16 18 19 17 15 14 16 14 15
12 12 9 10 10 12 12 14 12 12 15 18 18 15 17 21 20 22 21 19 17 17 13 16 17 19 19 21 27 25 25 24 24 22 22 25 24 25 22 18 16 19 20 18 19 16 16 14 14
12 7 8 5 8 7 10 6 8 10 11 16 18 16 17 19 20 21 20 21 22 19 17 16 15 18 22 24 29 25 29 27 26 26 28 27 25 25 23 19 19 22 24 24 23 19 18 16 14
4 4 4 7 12 6 6 4 3 7 10 11 17 15 17 15 19 24 25 25 25 24 21 18 16 13 18 22 26 27 30 28 28 28 28 25 24 22 22 21 21 23 26 26 24 21 22 18 17
7 4 6 8 9 8 5 4 3 5 6 9 21 17 12 17 20 20 24 28 27 26 24 21 22 19 16 10 20 20 15 19 21 21 21 20 20 19 21 22 22 21 23 22 19 19 21 22 19
5 6 5 8 9 9 6 7 8 7 6 8 14 16 18 19 20 20 21 23 26 27 28 27 26 23 21 18 16 15 15 14 12 10 11 13 15 19 21 21 20 18 19 18 19 20 22 21 19
6 5 2 7 10 8 6 11 10 10 9 10 11 11 14 19 23 25 25 24 25 28 30 28 29 30 28 24 22 19 21 19 14 9 11 9 16 19 20 18 18 19 20 18 18 18 14 12 13
8 5 3 2 7 10 11 8 17 14 14 13 12 13 15 16 19 22 23 27 28 31 32 33 33 33 35 32 29 24 24 24 20 14 12 12 16 18 18 18 18 17 18 17 15 15 13 12 13
8 8 7 7 8 8 13 8 13 19 16 14 15 10 10 12 16 16 18 22 23 25 28 32 37 36 36 39 35 31 30 25 24 20 15 15 18 17 16 19 17 16 15 17 15 14 13 13 10
9 11 12 11 11 10 14 16 13 19 21 18 16 15 13 15 17 17 15 13 16 22 25 27 32 38 39 40 39 37 33 28 26 24 19 16 18 19 16 17 14 14 15 15 15 13 12 11 11
13 13 11 9 8 9 15 14 9 20 20 20 17 16 19 21 17 18 20 22 21 23 25 24 29 35 44 44 42 39 40 36 30 26 22 18 19 21 16 16 13 11 13 14 13 13 12 10 9
16 18 14 12 11 11 15 10 9 19 20 19 17 17 16 17 17 20 21 21 21 22 21 20 23 25 36 41 40 39 42 39 34 26 23 19 21 20 19 17 16 15 16 14 12 13 11 9 9
15 16 17 11 8 7 10 6 11 21 20 19 18 17 17 17 19 19 18 19 18 19 18 20 21 21 22 30 37 43 41 41 37 32 26 22 25 24 22 20 20 20 20 18 15 14 12 11 10
13 10 5 8 6 10 7 8 9 27 23 21 20 20 21 22 23 24 22 20 20 19 18 20 23 27 24 23 25 33 40 42 39 37 33 27 27 29 27 27 26 24 25 24 22 20 19 18 16
6 6 6 6 5 6 11 7 15 23 26 25 23 23 24 26 28 28 28 28 27 25 24 23 25 29 30 27 34 39 39 40 41 41 39 35 33 34 33 32 33 32 30 30 29 27 26 25 24
24 26 25 11 9 5 6 8 15 22 23 20 19 20 22 24 27 30 33 34 35 36 36 32 31 29 30 30 32 33 41 43 45 45 43 40 40 40 39 41 40 38 36 35 36 35 33 31 29
Wind_Direction
232 231 228 202 166 188 75 44 110 112 129 126 165 181 247 218 210 207 278 184 168 174 166 167 173 167 169 160 157 159 158 154 152 150 143 135 124 108 86 74 71 71 68 67 63 60 59 60 57
226 227 220 181 177 164 109 72 129 118 152 165 173 188 257 251 280 238 288 181 157 169 171 173 176 178 177 172 166 167 168 164 161 167 164 162 141 105 84 72 66 63 59 59 57 53 53 53 55
223 221 208 180 196 185 222 57 165 161 166 182 178 204 261 330 295 240 151 163 158 157 177 180 179 188 185 181 178 177 183 184 180 178 176 173 174 94 46 61 71 70 65 62 63 56 49 48 49
220 213 205 184 179 185 206 249 188 177 164 186 180 196 19 354 92 154 174 176 165 167 175 182 180 194 193 189 190 191 196 197 199 201 191 199 217 232 249 283 339 32 53 46 49 53 44 46 46
218 208 203 190 171 172 199 207 202 183 175 190 197 210 67 350 167 155 164 179 193 191 179 184 183 197 201 196 197 202 208 211 211 219 238 242 257 277 288 295 308 329 357 25 24 35 36 27 32
212 207 194 176 164 185 198 192 186 186 184 200 201 197 167 279 216 202 187 188 194 191 189 185 182 192 200 203 206 208 217 229 238 252 260 266 273 279 291 300 308 314 327 335 341 356 20 18 19
214 209 186 161 143 164 193 186 182 189 200 205 194 184 211 268 239 219 214 189 182 179 183 180 187 194 198 203 209 214 222 232 244 261 281 288 283 286 291 297 295 299 301 299 301 318 348 4 1
216 209 176 153 140 156 171 179 188 183 198 202 184 199 209 270 242 228 212 197 180 176 173 175 181 190 199 196 199 209 217 224 239 265 274 278 290 299 303 300 297 299 300 303 302 297 296 310 320
218 206 186 165 146 158 174 174 180 186 185 188 189 186 201 266 245 235 235 209 185 178 176 171 180 186 189 190 191 203 208 207 205 262 277 289 307 302 292 290 290 288 292 292 290 290 288 275 277
212 212 190 182 165 157 179 175 178 182 184 191 195 180 191 269 196 182 296 231 206 186 183 187 191 192 195 197 192 198 208 193 140 76 28 24 351 336 307 287 279 279 280 282 286 288 289 283 279
212 209 190 191 190 176 167 181 186 192 189 178 197 193 178 195 188 187 276 231 202 204 192 190 190 193 202 202 191 215 217 185 168 60 106 343 331 335 315 292 283 274 274 277 282 283 282 280 280
222 214 200 192 211 197 188 179 193 187 192 197 197 195 183 185 199 240 248 204 226 213 202 203 195 206 213 208 210 197 194 234 237 257 272 255 309 320 320 286 278 271 269 274 278 279 275 273 269
227 230 220 215 218 214 208 192 189 179 190 208 218 202 196 191 210 230 219 198 212 224 219 213 227 218 222 215 217 210 259 268 244 257 276 252 285 308 316 283 271 265 263 268 276 277 278 270 266
224 228 224 226 215 221 226 215 214 209 210 222 237 236 219 214 216 218 218 223 226 221 238 234 247 241 246 236 236 238 244 252 255 259 273 274 277 294 304 279 263 260 257 266 276 270 273 272 272
250 256 253 241 228 217 226 231 232 235 236 248 246 234 236 229 224 214 225 224 232 229 240 239 239 241 243 239 238 249 245 249 264 270 269 272 275 284 295 279 258 255 258 260 280 286 264 270 266
268 276 268 258 243 236 233 240 243 250 257 258 257 264 247 227 233 217 220 223 229 235 234 236 239 243 255 258 245 249 252 253 261 264 266 275 275 282 286 274 250 252 253 267 275 280 256 252 263
269 248 253 214 196 207 207 234 219 226 256 264 249 240 249 232 225 224 222 227 232 241 241 240 248 253 258 253 247 249 247 255 257 260 270 274 271 279 277 267 248 248 254 266 271 267 247 247 252
143 169 198 197 200 187 195 171 230 244 272 217 199 205 221 226 221 225 229 223 227 233 239 243 247 260 248 248 252 251 247 257 259 266 270 268 266 276 276 269 254 250 254 260 264 251 241 240 254
224 262 291 216 212 203 203 173 224 251 284 253 204 203 215 229 228 236 235 229 228 235 240 241 247 253 251 266 248 244 239 255 261 266 262 259 273 279 278 273 265 260 260 255 249 237 234 236 256
235 279 273 212 215 202 211 169 200 187 230 199 210 224 229 230 234 246 253 251 244 240 246 253 257 260 259 255 257 258 262 255 264 285 289 279 284 282 278 270 263 257 257 251 239 238 251 246 243
253 240 302 221 218 205 202 177 201 218 230 225 219 231 240 239 245 250 251 248 248 247 248 249 255 259 260 258 255 254 265 258 278 307 308 294 285 281 277 270 265 259 253 246 239 233 223 230 247
255 222 275 215 196 212 198 209 206 208 228 237 268 270 267 259 253 250 248 250 251 253 253 253 253 254 256 254 252 252 260 267 275 287 285 280 279 283 283 275 269 254 243 236 222 218 228 240 253
255 255 265 265 245 224 203 214 210 220 211 249 267 255 252 255 252 247 253 252 253 254 259 261 255 252 254 251 250 250 256 260 264 267 286 273 271 281 285 275 266 249 228 223 218 218 232 242 242
264 266 257 253 230 229 221 221 210 206 219 226 230 233 253 277 277 270 261 263 264 266 265 264 261 253 250 251 241 244 248 253 257 262 273 275 269 273 282 266 253 228 217 216 214 210 216 232 249
256 231 227 226 220 250 228 218 245 210 213 213 221 237 263 269 261 266 271 273 278 273 268 276 281 258 245 247 241 235 242 247 250 255 264 273 265 268 279 262 243 221 203 203 210 215 219 216 217
240 218 231 251 245 252 201 214 207 206 205 213 225 238 244 250 265 277 279 278 277 268 272 288 296 277 248 242 237 229 237 242 245 241 252 264 261 265 265 262 234 220 210 207 204 200 203 214 220
227 221 237 235 250 243 219 205 199 200 208 214 220 228 236 245 259 263 265 264 263 264 266 277 294 291 261 241 232 234 235 238 239 236 237 243 251 254 254 253 237 229 222 221 217 216 218 224 228
227 235 223 218 234 242 215 215 222 209 211 220 230 240 248 253 258 263 264 265 271 270 265 261 273 282 270 247 252 248 240 237 234 234 237 237 243 250 246 245 239 234 232 229 228 228 231 237 240
243 216 253 265 248 264 253 230 222 208 215 226 237 248 257 262 268 274 276 277 280 275 268 262 265 262 265 255 238 234 238 239 234 235 237 236 237 240 243 242 241 236 237 237 235 236 238 240 243
281 275 260 246 257 241 275 259 229 217 220 235 254 270 282 288 291 290 291 295 295 295 290 277 268 261 255 258 256 245 235 231 229 232 236 238 232 236 237 237 236 235 239 243 241 241 242 244 247
Height
3185 3187 3190 3192 3197 3193 3191 3191 3189 3190 3190 3190 3189 3189 3190 3189 3191 3194 3190 3191 3194 3196 3198 3201 3204 3205 3207 3208 3210 3212 3215 3216 3218 3219 3220 3220 3220 3220 3220 3220 3220 3220 3219 3219 3218 3216 3215 3214 3213
3184 3186 3189 3191 3194 3192 3192 3190 3190 3190 3190 3190 3190 3190 3190 3190 3189 3189 3189 3191 3194 3197 3199 3201 3204 3206 3208 3209 3211 3213 3215 3217 3218 3219 3219 3220 3220 3221 3221 3222 3222 3222 3221 3221 3219 3218 3217 3216 3215
3183 3184 3188 3190 3191 3192 3191 3190 3189 3190 3190 3190 3190 3191 3190 3189 3188 3188 3189 3191 3193 3196 3199 3201 3204 3207 3209 3211 3212 3214 3216 3217 3218 3219 3220 3221 3222 3222 3221 3222 3222 3223 3222 3222 3221 3219 3218 3217 3216
3181 3184 3187 3188 3189 3190 3190 3190 3190 3189 3190 3189 3190 3191 3191 3189 3188 3189 3191 3193 3195 3196 3199 3202 3205 3209 3211 3211 3213 3214 3216 3218 3219 3220 3220 3220 3221 3221 3221 3221 3222 3223 3223 3223 3222 3221 3219 3218 3217
3180 3183 3185 3186 3188 3188 3188 3189 3189 3190 3188 3188 3190 3191 3191 3190 3190 3191 3192 3194 3195 3197 3199 3202 3204 3208 3210 3212 3214 3215 3217 3218 3218 3218 3219 3220 3221 3222 3222 3222 3222 3223 3223 3223 3222 3221 3220 3220 3218
3179 3181 3183 3185 3186 3185 3185 3186 3187 3189 3188 3188 3190 3191 3191 3191 3191 3192 3192 3193 3195 3198 3200 3201 3203 3206 3209 3212 3214 3215 3216 3218 3219 3220 3220 3220 3221 3221 3222 3222 3222 3222 3223 3223 3222 3222 3221 3220 3219
3177 3179 3181 3183 3184 3183 3183 3183 3185 3187 3188 3188 3190 3191 3192 3190 3191 3192 3193 3193 3195 3197 3200 3201 3204 3206 3209 3211 3213 3214 3216 3218 3219 3220 3220 3221 3221 3221 3221 3221 3221 3221 3221 3222 3222 3222 3221 3220 3219
3176 3178 3180 3181 3182 3182 3181 3181 3183 3185 3186 3188 3189 3190 3191 3190 3191 3192 3193 3194 3195 3197 3198 3201 3204 3206 3209 3210 3211 3214 3215 3217 3218 3220 3220 3220 3221 3221 3221 3220 3220 3220 3220 3220 3220 3221 3221 3220 3218
3174 3177 3179 3180 3180 3180 3180 3180 3182 3183 3184 3186 3188 3189 3190 3189 3190 3191 3193 3194 3195 3197 3199 3201 3203 3206 3208 3209 3210 3212 3214 3216 3217 3218 3219 3219 3220 3220 3219 3219 3219 3218 3218 3218 3218 3219 3219 3219 3218
3172 3174 3177 3178 3179 3178 3178 3179 3180 3183 3184 3185 3187 3189 3189 3188 3189 3191 3193 3195 3196 3197 3199 3201 3203 3206 3208 3209 3210 3211 3213 3215 3216 3217 3217 3218 3218 3219 3218 3217 3217 3216 3216 3216 3216 3217 3217 3217 3217
3169 3172 3174 3175 3176 3177 3177 3178 3179 3180 3183 3185 3187 3187 3189 3190 3190 3191 3194 3195 3197 3198 3199 3201 3203 3205 3207 3208 3209 3211 3213 3214 3214 3215 3216 3217 3217 3217 3215 3215 3214 3214 3214 3213 3214 3214 3215 3215 3215
3168 3169 3171 3173 3174 3176 3177 3177 3178 3180 3182 3184 3184 3185 3187 3189 3190 3192 3193 3195 3196 3197 3198 3200 3202 3204 3206 3207 3208 3210 3212 3213 3212 3213 3214 3214 3214 3214 3212 3211 3211 3211 3211 3211 3211 3211 3211 3212 3213
3165 3167 3168 3170 3172 3174 3175 3177 3177 3178 3179 3181 3183 3184 3186 3187 3189 3190 3192 3193 3195 3196 3198 3199 3201 3203 3204 3205 3207 3208 3210 3210 3211 3211 3211 3211 3211 3210 3209 3208 3207 3208 3208 3208 3208 3208 3208 3209 3210
3164 3165 3166 3168 3170 3172 3174 3175 3175 3178 3178 3179 3180 3182 3183 3185 3186 3188 3190 3191 3193 3195 3196 3197 3199 3201 3202 3203 3205 3206 3207 3207 3208 3208 3209 3208 3208 3207 3205 3204 3204 3204 3205 3204 3204 3204 3204 3205 3206
3162 3163 3164 3166 3168 3170 3171 3172 3172 3174 3175 3176 3177 3179 3180 3181 3183 3185 3187 3190 3191 3193 3193 3194 3195 3198 3200 3201 3202 3203 3204 3204 3204 3205 3205 3205 3204 3203 3201 3200 3199 3200 3201 3201 3201 3201 3201 3202 3203
3160 3161 3162 3163 3164 3166 3168 3169 3169 3170 3170 3172 3173 3175 3176 3178 3180 3182 3184 3186 3187 3189 3191 3192 3193 3194 3196 3198 3198 3199 3199 3200 3200 3201 3201 3200 3199 3198 3196 3196 3195 3196 3197 3197 3197 3198 3198 3199 3200
3156 3158 3158 3160 3161 3161 3164 3165 3165 3166 3166 3167 3168 3170 3171 3173 3176 3178 3180 3181 3183 3185 3186 3188 3189 3191 3192 3193 3193 3194 3194 3195 3195 3196 3196 3195 3194 3192 3191 3191 3191 3191 3192 3192 3193 3194 3195 3196 3196
3152 3154 3155 3156 3159 3159 3160 3161 3162 3162 3161 3160 3161 3163 3165 3167 3169 3170 3172 3175 3177 3179 3180 3182 3184 3185 3186 3188 3189 3189 3189 3190 3190 3191 3190 3189 3188 3187 3186 3185 3186 3186 3187 3188 3189 3189 3191 3192 3193
3150 3151 3152 3153 3154 3156 3157 3159 3157 3158 3157 3156 3157 3159 3161 3163 3164 3165 3167 3169 3171 3173 3175 3177 3178 3180 3181 3182 3183 3184 3185 3185 3186 3185 3184 3184 3183 3182 3181 3180 3180 3181 3182 3182 3184 3184 3186 3188 3189
3147 3148 3148 3149 3150 3153 3154 3155 3154 3154 3154 3154 3154 3154 3156 3158 3159 3161 3162 3163 3165 3167 3169 3171 3173 3174 3176 3177 3179 3180 3180 3181 3181 3180 3179 3178 3177 3177 3176 3175 3175 3176 3177 3178 3179 3181 3183 3183 3185
3145 3145 3145 3146 3146 3149 3151 3152 3150 3150 3150 3151 3152 3152 3153 3154 3155 3156 3157 3158 3160 3161 3162 3164 3166 3168 3169 3172 3173 3174 3174 3175 3176 3176 3175 3174 3173 3173 3171 3170 3170 3171 3173 3174 3175 3177 3178 3180 3181
3142 3142 3142 3142 3143 3144 3145 3146 3145 3145 3146 3147 3147 3148 3148 3149 3150 3151 3152 3152 3153 3154 3155 3157 3158 3159 3161 3164 3166 3168 3169 3171 3172 3172 3170 3170 3169 3168 3166 3166 3166 3167 3169 3170 3172 3173 3175 3176 3178
3140 3140 3140 3139 3140 3140 3141 3143 3141 3141 3142 3143 3143 3144 3144 3144 3145 3146 3147 3147 3147 3147 3148 3148 3150 3150 3152 3154 3158 3160 3163 3166 3167 3167 3166 3165 3165 3164 3163 3162 3162 3163 3165 3167 3169 3170 3172 3173 3175
3135 3136 3136 3136 3136 3135 3136 3138 3136 3136 3137 3138 3139 3139 3140 3140 3141 3142 3143 3143 3143 3141 3141 3140 3140 3140 3142 3144 3148 3152 3156 3159 3161 3162 3162 3161 3161 3161 3161 3160 3161 3161 3163 3165 3166 3167 3169 3170 3171
3131 3132 3131 3131 3131 3128 3130 3132 3130 3130 3132 3133 3134 3135 3136 3136 3136 3136 3137 3137 3137 3135 3134 3133 3130 3127 3131 3133 3137 3141 3146 3151 3156 3157 3158 3156 3156 3157 3159 3159 3159 3160 3161 3162 3164 3165 3166 3167 3169
3124 3127 3125 3122 3121 3123 3125 3124 3125 3126 3127 3128 3129 3130 3130 3130 3131 3131 3131 3131 3130 3130 3127 3126 3123 3119 3121 3124 3128 3132 3137 3142 3148 3150 3152 3152 3152 3154 3156 3156 3157 3158 3159 3160 3161 3161 3163 3164 3166
3120 3120 3121 3121 3121 3121 3121 3121 3121 3122 3123 3124 3125 3125 3126 3126 3125 3126 3126 3125 3124 3123 3122 3120 3119 3117 3114 3115 3119 3123 3127 3131 3137 3141 3144 3146 3148 3150 3152 3153 3154 3155 3156 3157 3158 3158 3159 3161 3162
3115 3117 3118 3117 3117 3115 3116 3117 3115 3116 3118 3120 3121 3121 3120 3120 3120 3119 3119 3119 3118 3117 3116 3115 3115 3114 3113 3111 3113 3116 3119 3122 3127 3132 3135 3137 3140 3143 3146 3148 3150 3151 3151 3152 3154 3155 3155 3156 3157
3114 3113 3115 3115 3114 3109 3109 3110 3110 3111 3113 3115 3116 3116 3115 3114 3112 3111 3111 3111 3112 3112 3111 3109 3109 3110 3108 3107 3107 3108 3111 3112 3117 3121 3125 3128 3130 3133 3137 3141 3143 3145 3146 3147 3148 3149 3150 3152 3152
3108 3108 3110 3111 3112 3111 3112 3110 3108 3107 3108 3109 3110 3110 3108 3107 3106 3105 3103 3102 3102 3101 3101 3103 3102 3101 3101 3100 3100 3100 3100 3101 3105 3109 3113 3117 3119 3122 3125 3129 3131 3135 3139 3141 3142 3142 3144 3145 3146